METEOR 2-11 DEB, 43310

Orbit data source: Space-Track

METEOR 2-11 DEB, 43310 is space debris in LEO originally from a launch on Thu, 05 Jul 1984 UTC launched from the Plesetsk Missile And Space Complex (PKMTR). Debris objects in space refer to the collection of defunct objects orbiting the Earth. Examples of debris include non-operational satellites, rocket bodies, and fragments generated from explosions, collisions, or faulty payload assembly.

Loading next visibility...
Identifier
43310, 1984-072V
Orbit
LEO
Country
Flag of CISCIS
Related business
Manufacturer
Unknown
Mission
Spacecraft
Bus & Motor
Unknown
Mass
Unknown
Launch date (UTC)
1984-07-05 (42 years ago)
Launch vehicle
Unknown
Launch site
Plesetsk Missile And Space Complex (PKMTR)
Object type
Payload
Rocket body
Debris
Shape & HBR
Unknown shape, 0.1 m
Radar Cross Section
Small (<0.1 m²)

Expand to show TLE details & history
Last TLE update: 1 week ago

TLE from 1 week ago
0 METEOR 2-11 DEB
1 43310U 84072V   26200.75863473  .00000872  00000-0  62953-3 0  9990
2 43310  82.5460   1.7187 0015348 347.4770  12.6013 13.95602659588375
Epoch: 2026-07-19T18:12Z
TLE epoch observation values (Epoch: 2026-07-19T18:12:26.040Z)
Latitude
-0.00003°
Longitude
151.05776°
Altitude
901.064 km
Speed
7.407 km/s
True Right ascension
00h 06m 52s
True Declination
0° 00' 00"
Sunlit
Object was in daylight at epoch
Visualization orbit readout
Latitude
Unknown
Longitude
Unknown
Altitude
Unknown
Speed
Unknown
Apparent Right ascension
Unknown
Apparent Declination
Unknown
Sunlit
N/A
Visualization observer readout
Local Sidereal Time
05:26:37
Azimuth
Unknown
Elevation
Unknown
Doppler factor
Unknown
Orbital elements
Apogee altitude
917.378 km
Perigee altitude
895.018 km
Semi-major axis
7,284.335 km
Eccentricity
0.00153
Inclination
82.546°
RAAN
1.7187°
Arg. of periapsis
347.477°
True anomaly
12.63974°
Mean anomaly
12.6013°
Eccentric anomaly
12.62051°
Mean motion
3.49107 °/min
Orbital period
103.12 mins
BSTAR
0.00062953
Loading maneuver chart data...
Computing Atmospheric mass density...
Loading historical data...
Loading historical data...
Loading historical data...
Loading historical data...
Loading historical data...
Loading historical data...
Loading historical data...

Documentation

Showing up to 5 results
|